Location: Holkham
(52.9500°N, 0.8167°E)
Time: 21:05:07
(UTC+00:00)

USA 59 Rocket - Pass Details

Date: 19 May 2025
Orbit: 373 x 1695 km, 63.3° (Epoch: 18 June)

Event Time Altitude Azimuth Distance (km) Brightness Sun altitude
Exits shadow 22:09:51 16° 103° (ESE) 1,151 1.1 -13.7°
Drops below altitude 10° 22:11:05 10° 80° (E) 1,416 1.8 -13.8°
Sets 22:13:27 0° 59° (ENE) 2,245 3.0 -13.9°
